Station GNJT2 - 8771341 - Galveston Bay Entrance (North Jetty), TX Image indicating link to RSS feed of recent meteorological observations for station GNJT2


Conditions at GNJT2 as of
(12:18 pm CDT)
1718 GMT on 05/22/2024:
     

Click on the graph icon in the table below to see a time series plot of the last five days of that observation.

5-day plot - Wind Direction Wind Direction (WDIR):SSE ( 150 deg true )
5-day plot - Wind Speed Wind Speed (WSPD): 17.1 kts
5-day plot - Wind Gust Wind Gust (GST): 19.0 kts
5-day plot - Water Temperature Water Temperature (WTMP): 82.6 °F
5-day plot - Wind Speed at 10 Meters Wind Speed at 10 meters (WSPD10M): 17.5 kts
5-day plot - Wind Speed at 20 Meters Wind Speed at 20 meters (WSPD20M): 17.5 kts
5-day plot -  Wind Speed, Wind Gust and Atmospheric Pressure Combined plot of Wind Speed, Gust, and Air Pressure
NOS Water Level Observation Network Water Level
Previous observations
TIME
(CDT)
5-day plot - Wind Direction
WDIR
 
5-day plot - Wind Speed
WSPD
kts
5-day plot - Wind Gust
GST
kts
5-day plot - Wave Height
WVHT
ft
5-day plot - Dominant Wave Period
DPD
sec
5-day plot - Average Wave Period
APD
sec
5-day plot - Mean Wave Direction
MWD
 
5-day plot - Atmospheric Pressure
PRES
in
5-day plot - Pressure Tendency
PTDY
in
5-day plot - Air Temperature
ATMP
°F
5-day plot - Water Temperature
WTMP
°F
5-day plot - Dew Point
DEWP
°F
5-day plot - Salinity
SAL
psu
5-day plot - Visibility
VIS
nmi
5-day plot - Tide (above MLLW)
TIDE
ft
2024-05-22 12:12 pmSSE 17.1 19.0------- 82.6----
2024-05-22 12:06 pmSSE 15.0 18.1------- 82.6----
2024-05-22 12:00 pmSSE 15.9 17.1----29.87+0.01- 82.6----
2024-05-22 11:54 amSSE 15.0 18.1----29.88-- 82.6----
2024-05-22 11:48 amSSE 14.0 15.9------- 82.6----
2024-05-22 11:42 amSSE 14.0 17.1------- 82.6----
2024-05-22 11:36 amSSE 15.0 18.1------- 82.6----
2024-05-22 11:30 amSSE 14.0 15.9------------
2024-05-22 11:24 amSSE 15.0 17.1------------
2024-05-22 11:18 amSSE 14.0 15.9------------
2024-05-22 11:12 amSSE 14.0 15.9------ 80.8 82.6----
2024-05-22 11:06 amSSE 14.0 15.9------ 80.8 82.6----
2024-05-22 11:00 amSSE 14.0 15.9----29.88+0.02 80.6 82.6----
2024-05-22 10:54 amSSE 14.0 17.1----29.88- 80.8 82.6----
2024-05-22 10:48 amSSE 13.0 17.1----29.87- 80.8 82.6----
2024-05-22 10:42 amSSE 15.9 18.1----29.87- 80.6 82.6----
2024-05-22 10:36 amSSE 15.0 18.1----29.87- 80.8 82.6----
2024-05-22 10:30 amSSE 14.0 17.1----29.87- 80.8 82.6----
2024-05-22 10:24 amSSE 15.0 17.1----29.87- 80.6 82.6----
2024-05-22 10:18 amSSE 14.0 17.1----29.87- 80.8 82.6----
2024-05-22 10:12 amSSE 15.9 17.1----29.87- 80.6 82.6----
2024-05-22 10:06 amSSE 15.0 17.1----29.87- 80.8 82.6----
2024-05-22 10:00 amSSE 15.0 15.9----29.87+0.04 80.6 82.6----
2024-05-22 09:54 amSSE 13.0 14.0----29.87- 80.8 82.6----
2024-05-22 09:48 amSSE 13.0 14.0----29.86-- 82.6----
2024-05-22 09:42 amSSE 12.0 14.0----29.86-- 82.6----
2024-05-22 09:36 am SE 12.0 13.0----29.87-- 82.6----
2024-05-22 09:30 amSSE 11.1 13.0------------
2024-05-22 09:24 amSSE 12.0 14.0------------
2024-05-22 09:18 amSSE 13.0 15.0------------
2024-05-22 09:12 amSSE 13.0 14.0------------
2024-05-22 09:06 amSSE 14.0 17.1------------
2024-05-22 09:00 amSSE 15.0 17.1----29.86+0.05 80.8 82.6----
2024-05-22 08:54 amSSE 13.0 15.9----29.85- 80.8 82.6----
2024-05-22 08:48 amSSE 14.0 17.1----29.86-- 82.6----
2024-05-22 08:42 amSSE 12.0 13.0----29.86-- 82.6----
2024-05-22 08:36 amSSE 12.0 17.1----29.86-- 82.6----
2024-05-22 08:30 amSSE 13.0 15.0------------
2024-05-22 08:24 amSSE 12.0 13.0------------
2024-05-22 08:18 amSSE 11.1 12.0----29.86-- 82.8----
2024-05-22 08:12 amSSE 8.0 11.1----29.86-- 82.8----
2024-05-22 08:06 am SE 8.9 11.1----29.86-- 82.8----
2024-05-22 08:00 am SE 8.9 11.1----29.86+0.06 80.6 82.8----
2024-05-22 07:54 amSSE 9.9 11.1----29.85- 80.6 82.8----
2024-05-22 07:48 amSSE 9.9 12.0----29.85- 80.6 82.8----
2024-05-22 07:42 amSSE 11.1 13.0----29.85- 80.6 82.8----
2024-05-22 07:36 amSSE 11.1 14.0----29.85- 80.6 82.8----
2024-05-22 07:30 amSSE 11.1 14.0----29.85- 80.6 82.8----
2024-05-22 07:24 amSSE 13.0 14.0----29.84- 80.4 82.8----
2024-05-22 07:18 amSSE 12.0 13.0----29.84- 80.4 82.8----
2024-05-22 07:12 amSSE 12.0 13.0----29.84- 80.6 82.8----
2024-05-22 07:06 amSSE 9.9 12.0----29.84- 80.6 82.8----
2024-05-22 07:00 amSSE 8.9 12.0----29.83+0.05 80.4 82.8----
2024-05-22 06:54 amSSE 11.1 14.0----29.83- 80.4 82.8----
2024-05-22 06:48 amSSE 13.0 14.0----29.83- 80.4 82.8----
2024-05-22 06:42 amSSE 13.0 15.0----29.83- 80.4 82.8----
2024-05-22 06:36 amSSE 9.9 12.0----29.83- 80.6 82.6----
2024-05-22 06:30 amSSE 9.9 15.0----29.82- 80.4 82.6----
2024-05-22 06:24 amSSE 12.0 13.0----29.82- 80.2 82.6----
2024-05-22 06:18 amSSE 11.1 13.0----29.82-------
2024-05-22 06:12 amSSE 9.9 13.0----29.82- 80.2 82.6----
2024-05-22 06:06 amSSE 11.1 14.0----29.81- 80.2 82.6----
2024-05-22 06:00 amSSE 12.0 15.0----29.81+0.01 80.2 82.6----
2024-05-22 05:54 amSSE 13.0 15.0----29.80- 80.2 82.4----
2024-05-22 05:48 am S 13.0 15.0----29.80- 80.2 82.4----
2024-05-22 05:42 am S 13.0 15.9----29.80- 80.2 82.4----
2024-05-22 05:36 am S 14.0 17.1----29.80- 80.4 82.4----
2024-05-22 05:30 am S 15.0 17.1----29.80- 80.1 82.4----
2024-05-22 05:24 am S 15.0 18.1----29.80- 80.2 82.2----
2024-05-22 05:18 am S 15.0 17.1----29.80- 80.2 82.2----
2024-05-22 05:12 am S 15.0 18.1----29.80- 80.1 82.2----
2024-05-22 05:06 am S 14.0 15.9----29.80- 80.2 82.2----
2024-05-22 05:00 am S 14.0 17.1----29.80-0.01 80.2 82.2----
2024-05-22 04:54 am S 14.0 17.1----29.80- 80.2 82.2----
2024-05-22 04:48 am S 14.0 15.0----29.80- 80.1 82.2----
2024-05-22 04:42 am S 14.0 18.1----29.80- 80.1 82.2----
2024-05-22 04:36 am S 15.9 18.1----29.80- 79.9 82.2----
2024-05-22 04:30 am S 15.0 19.0----29.79- 80.2 82.0----
2024-05-22 04:24 am S 15.0 18.1----29.79- 80.1 82.0----
2024-05-22 04:18 am S 15.0 18.1----29.79- 80.1 82.0----
2024-05-22 04:12 am S 15.9 19.0----29.79- 80.1 82.0----
2024-05-22 04:06 am S 15.9 19.0----29.79- 80.1 82.0----
2024-05-22 04:00 am S 15.9 19.0----29.79-0.04 80.1 82.0----
2024-05-22 03:54 am S 17.1 19.0----29.79- 80.1 82.0----
2024-05-22 03:48 am S 18.1 20.0----29.79- 80.2 82.0----
2024-05-22 03:42 am S 18.1 20.0----29.79- 80.2 82.0----
2024-05-22 03:36 am S 17.1 20.0----29.79- 80.1 82.0----
2024-05-22 03:30 am S 18.1 20.0----29.79- 80.1 82.0----
2024-05-22 03:24 am S 18.1 21.0----29.79- 79.9 82.0----
2024-05-22 03:18 am S 17.1 20.0----29.79-------
2024-05-22 03:12 am S 19.0 21.0----29.79- 79.9 82.0----
2024-05-22 03:06 am S 19.0 21.0----29.80- 79.9 82.0----
2024-05-22 03:00 am S 17.1 22.0----29.80-0.04 80.1 82.0----
2024-05-22 02:54 am S 19.0 20.0----29.80- 80.1 81.9----
2024-05-22 02:48 am S 19.0 21.0----29.81- 80.1 81.9----
2024-05-22 02:42 am S 19.0 22.0----29.81- 80.2 81.9----
2024-05-22 02:36 am S 20.0 22.0----29.81- 80.1 81.9----
2024-05-22 02:30 am S 20.0 22.0----29.81- 80.1 81.9----
2024-05-22 02:24 am S 18.1 22.9----29.81- 80.2 81.9----
2024-05-22 02:18 am S 19.0 22.0----29.82- 80.2 81.9----
2024-05-22 02:12 am S 19.0 22.0----29.82- 80.1 81.9----
2024-05-22 02:06 am S 20.0 22.0----29.82- 80.1 81.9----
2024-05-22 02:00 amSSE 20.0 22.0----29.81-0.01 79.9 81.9----
2024-05-22 01:54 am S 20.0 22.9----29.82- 79.9 81.9----
2024-05-22 01:48 am S 20.0 24.1----29.82-- 81.9----
2024-05-22 01:42 am S 19.0 22.9----29.82- 80.1 81.9----
2024-05-22 01:36 am S 21.0 22.9----29.82- 79.9 81.9----
2024-05-22 01:30 amSSE 21.0 22.9----29.82- 80.1 81.9----
2024-05-22 01:24 amSSE 21.0 24.1----29.82- 79.9 81.9----
2024-05-22 01:18 amSSE 21.0 24.1----29.82-------
2024-05-22 01:12 amSSE 20.0 22.9----29.82- 80.1 81.9----
2024-05-22 01:06 amSSE 21.0 24.1----29.83- 80.1 81.9----
2024-05-22 01:00 amSSE 21.0 24.1----29.83+0.00 80.1 81.9----
2024-05-22 12:54 amSSE 20.0 22.9----29.83- 80.1 81.9----
2024-05-22 12:48 amSSE 21.0 24.1----29.83-- 81.9----
2024-05-22 12:42 amSSE 21.0 22.9----29.83- 80.1 81.9----
2024-05-22 12:36 amSSE 18.1 21.0----29.83- 80.2 81.9----
2024-05-22 12:30 amSSE 17.1 21.0----29.83- 80.2 81.9----
2024-05-22 12:24 amSSE 18.1 21.0----29.84- 80.2 81.9----
2024-05-22 12:18 amSSE 17.1 20.0----29.84-------
2024-05-22 12:12 amSSE 15.9 20.0----29.84- 80.4 81.9----
2024-05-22 12:06 amSSE 17.1 21.0----29.84- 80.4 81.9----
2024-05-22 12:00 amSSE 17.1 20.0----29.83+0.02 80.2 81.9----
2024-05-21 11:54 pmSSE 18.1 22.0----29.84- 80.2 82.0----
2024-05-21 11:48 pmSSE 17.1 21.0----29.84- 80.2 82.0----
2024-05-21 11:42 pmSSE 18.1 22.9----29.84- 80.2 82.0----
2024-05-21 11:36 pmSSE 20.0 22.0----29.83- 80.2 82.0----
2024-05-21 11:30 pmSSE 20.0 22.9----29.83- 80.4 82.0----
2024-05-21 11:24 pmSSE 20.0 24.1----29.83- 80.2 82.0----
2024-05-21 11:18 pmSSE 22.0 25.1----29.82- 80.4 82.2----
2024-05-21 11:12 pmSSE 20.0 22.9----29.83- 80.2 82.2----
2024-05-21 11:06 pmSSE 19.0 22.0----29.83- 80.4 82.2----
2024-05-21 11:00 pmSSE 20.0 22.9----29.83+0.02 80.4 82.4----
2024-05-21 10:54 pmSSE 19.0 22.9----29.83- 80.4 82.4----
2024-05-21 10:48 pmSSE 19.0 22.9----29.83- 80.2 82.4----
2024-05-21 10:42 pmSSE 22.0 22.9----29.83- 80.2 82.4----
2024-05-21 10:36 pmSSE 19.0 22.9----29.82- 80.2 82.4----
2024-05-21 10:30 pmSSE 20.0 24.1----29.82- 80.4 82.6----
2024-05-21 10:24 pmSSE 19.0 22.9----29.82- 80.4 82.6----
2024-05-21 10:18 pmSSE 20.0 22.0----29.82- 80.4 82.6----
2024-05-21 10:12 pmSSE 20.0 22.9----29.82- 80.6 82.6----
2024-05-21 10:06 pmSSE 21.0 22.9----29.82- 80.6 82.6----
2024-05-21 10:00 pmSSE 18.1 22.9----29.82+0.04 80.6 82.6----
2024-05-21 09:54 pmSSE 20.0 22.9----29.82- 80.6 82.6----
2024-05-21 09:48 pmSSE 19.0 22.0----29.82- 80.6 82.6----
2024-05-21 09:42 pmSSE 19.0 22.9----29.81- 80.6 82.6----
2024-05-21 09:36 pmSSE 19.0 22.0----29.81- 80.6 82.6----
2024-05-21 09:30 pmSSE 19.0 22.9----29.81- 80.6 82.6----
2024-05-21 09:24 pmSSE 21.0 22.9----29.81- 80.4 82.6----
2024-05-21 09:18 pmSSE 20.0 22.0----29.81- 80.6 82.6----
2024-05-21 09:12 pmSSE 19.0 20.0----29.81- 80.6 82.6----
2024-05-21 09:06 pmSSE 18.1 22.0----29.81- 80.4 82.8----
2024-05-21 09:00 pm SE 18.1 20.0----29.81+0.03 80.4 82.8----
2024-05-21 08:54 pmSSE 18.1 20.0----29.81- 80.4 82.8----
2024-05-21 08:48 pmSSE 15.9 18.1----29.81-- 82.8----
2024-05-21 08:42 pmSSE 17.1 20.0----29.81- 80.6 82.8----
2024-05-21 08:36 pm SE 18.1 19.0----29.81- 80.4 82.9----
2024-05-21 08:30 pmSSE 15.9 18.1----29.81- 80.4 82.9----
2024-05-21 08:24 pmSSE 15.0 15.9----29.81- 80.6 82.9----
2024-05-21 08:18 pmSSE 15.0 17.1----29.81-------
2024-05-21 08:12 pm SE 15.9 18.1----29.80- 80.4 82.9----
2024-05-21 08:06 pmSSE 15.0 17.1----29.80- 80.4 82.9----
2024-05-21 08:00 pm SE 14.0 15.9----29.80+0.01 80.6 82.9----
2024-05-21 07:54 pm SE 14.0 15.9----29.80- 80.6 83.1----
2024-05-21 07:48 pm SE 15.0 18.1----29.80- 80.4 83.1----
2024-05-21 07:42 pmSSE 15.9 17.1----29.80- 80.4 83.1----
2024-05-21 07:36 pmSSE 14.0 17.1----29.79- 80.6 83.1----
2024-05-21 07:30 pm SE 15.9 18.1----29.79- 80.6 83.1----
2024-05-21 07:24 pm SE 15.9 18.1----29.79- 80.6 83.1----
2024-05-21 07:18 pmSSE 15.9 18.1----29.79- 80.4 83.1----
2024-05-21 07:12 pm SE 15.9 18.1----29.79- 80.4 83.1----
2024-05-21 07:06 pmSSE 15.9 19.0----29.78- 80.4 83.1----
2024-05-21 07:00 pmSSE 15.0 18.1----29.78-0.02 80.4 83.1----
2024-05-21 06:54 pmSSE 15.9 18.1----29.78- 80.4 83.1----
2024-05-21 06:48 pmSSE 15.0 18.1----29.78- 80.4 83.1----
2024-05-21 06:42 pmSSE 15.0 19.0----29.78- 80.4 83.1----
2024-05-21 06:36 pmSSE 15.9 18.1----29.79- 80.4 83.1----
2024-05-21 06:30 pmSSE 15.9 18.1----29.79- 80.4 83.1----
2024-05-21 06:24 pmSSE 15.9 19.0----29.79- 80.4 83.1----
2024-05-21 06:18 pmSSE 15.9 20.0----29.79- 80.8 83.1----
2024-05-21 06:12 pmSSE 15.9 19.0----29.79- 80.4 83.1----
2024-05-21 06:06 pmSSE 17.1 19.0----29.79- 80.4 83.1----
2024-05-21 06:00 pmSSE 15.9 20.0----29.79-0.03 80.4 83.3----
2024-05-21 05:54 pmSSE 15.0 19.0----29.79- 80.4 83.3----
2024-05-21 05:48 pmSSE 17.1 19.0----29.79- 80.4 83.3----
2024-05-21 05:42 pmSSE 15.9 18.1----29.79- 80.4 83.3----
2024-05-21 05:36 pmSSE 18.1 19.0----29.79- 80.4 83.3----
2024-05-21 05:30 pm S 17.1 19.0----29.79- 80.4 83.3----
2024-05-21 05:24 pmSSE 17.1 20.0----29.79- 80.2 83.3----
2024-05-21 05:18 pmSSE 18.1 21.0----29.78- 80.4 83.3----
2024-05-21 05:12 pmSSE 17.1 19.0----29.79- 80.4 83.1----
2024-05-21 05:06 pmSSE 17.1 20.0----29.79- 80.4 83.1----
2024-05-21 05:00 pmSSE 17.1 19.0----29.79-0.04 80.4 83.1----
2024-05-21 04:54 pmSSE 18.1 20.0----29.79- 80.2 83.1----
2024-05-21 04:48 pmSSE 17.1 18.1----29.79- 80.2 83.1----
2024-05-21 04:42 pmSSE 15.9 19.0----29.79- 80.6 83.3----
2024-05-21 04:36 pmSSE 18.1 19.0----29.79- 80.2 83.5----
2024-05-21 04:30 pmSSE 15.9 20.0----29.79-- 83.5----
2024-05-21 04:24 pmSSE 15.0 20.0----29.79-- 83.5----
2024-05-21 04:18 pmSSE 17.1 19.0----29.79-- 83.5----
2024-05-21 04:12 pmSSE 17.1 19.0----29.79-- 83.5----
2024-05-21 04:06 pmSSE 15.9 18.1----29.80-- 83.5----
2024-05-21 04:00 pmSSE 15.9 19.0----29.80-0.04 80.6 83.5----
2024-05-21 03:54 pmSSE 17.1 19.0----29.80- 80.4 83.5----
2024-05-21 03:48 pmSSE 15.9 18.1----29.80-- 83.5----
2024-05-21 03:42 pm S 14.0 17.1----29.81-- 83.7----
2024-05-21 03:36 pmSSE 14.0 19.0----29.81-- 83.7----
2024-05-21 03:30 pmSSE 17.1 19.0----29.81-------
2024-05-21 03:24 pm S 17.1 19.0----29.81-------
2024-05-21 03:18 pmSSE 18.1 19.0----29.81-- 83.7----
2024-05-21 03:12 pmSSE 15.9 19.0----29.81-- 83.7----
2024-05-21 03:06 pmSSE 17.1 19.0----29.81-- 83.7----
2024-05-21 03:00 pm S 17.1 19.0----29.82-0.03 80.4 83.7----
2024-05-21 02:54 pm S 17.1 19.0----29.82- 80.4 83.7----
2024-05-21 02:48 pmSSE 17.1 19.0----29.82-- 83.7----
2024-05-21 02:42 pmSSE 17.1 19.0----29.82-- 83.7----
2024-05-21 02:36 pmSSE 17.1 19.0----29.82-- 83.7----
2024-05-21 02:30 pmSSE 18.1 21.0------- 83.8----
2024-05-21 02:24 pmSSE 17.1 20.0------- 83.7----
2024-05-21 02:18 pmSSE 18.1 19.0----29.82-- 83.7----
2024-05-21 02:12 pmSSE 17.1 19.0----29.83- 80.2 83.5----
2024-05-21 02:06 pmSSE 17.1 19.0----29.83- 80.1 83.5----
2024-05-21 02:00 pmSSE 15.9 19.0----29.83-0.01 80.2 83.3----
2024-05-21 01:54 pmSSE 15.9 18.1----29.83- 80.2 83.3----
2024-05-21 01:48 pmSSE 17.1 19.0----29.83-- 83.1----
2024-05-21 01:42 pmSSE 17.1 19.0----29.83- 80.2 83.1----
2024-05-21 01:36 pmSSE 17.1 18.1----29.83- 80.2 83.1----
2024-05-21 01:30 pmSSE 15.9 18.1----29.83- 80.2 82.9----
2024-05-21 01:24 pmSSE 17.1 19.0----29.83- 80.1 82.8----
2024-05-21 01:18 pmSSE 15.9 19.0----29.83- 80.1 82.8----
2024-05-21 01:12 pmSSE 15.0 18.1----29.84- 80.2 82.8----
2024-05-21 01:06 pmSSE 15.0 18.1----29.84- 80.2 82.6----
2024-05-21 01:00 pmSSE 15.0 18.1----29.84+0.01 80.2 82.6----
2024-05-21 12:54 pmSSE 15.0 17.1----29.84- 80.1 82.6----
2024-05-21 12:48 pmSSE 15.0 17.1------------
2024-05-21 12:42 pmSSE 15.0 17.1----29.84- 80.2 82.6----
2024-05-21 12:36 pmSSE 15.0 17.1----29.84- 80.2 82.6----
2024-05-21 12:30 pmSSE 14.0 17.1----29.84- 80.4 82.6----
2024-05-21 12:24 pmSSE 15.0 17.1----29.84- 80.2 82.6----
2024-05-21 12:18 pm S 15.9 17.1----29.84- 80.2 82.4----
2024-05-21 12:12 pm S 15.9 17.1----29.84- 80.2 82.4----
2024-05-21 12:06 pmSSE 15.0 18.1----29.84- 80.4 82.4----
2024-05-21 12:00 pm S 14.0 18.1----29.84+0.03 80.2 82.2----
2024-05-21 11:54 amSSE 15.0 18.1----29.84- 80.1 82.2----